Location: State Camp
(41.2367°N, 77.7828°W)
Time: 03:27:38
(UTC-05:00)

Amateur Radio Satellites - All Passes

Search period start: 28 November 2014 02:57
Search period end: 29 November 2014 02:57
Location: State Camp, 41.2367°N, 77.7828°W

Satellite Date Start Highest point End Downlink Frequencies (MHz)
Time Altitude Azimuth
BEESAT 3 28 Nov 02:59:12 03:01:17 13° 40° (NE) 03:03:21 437.485
KKS-1 28 Nov 03:09:20 03:12:02 16° 268° (W) 03:14:45 437.445
PCSat 28 Nov 03:09:51 03:14:08 23° 46° (NE) 03:18:24 145.827
ITAMSAT 1 28 Nov 03:11:31 03:16:27 46° 290° (WNW) 03:21:21 435.822/435.867
BEESAT 2 28 Nov 03:15:59 03:18:45 17° 42° (NE) 03:21:29 435.950
YUBILEINY 28 Nov 03:18:39 03:27:12 54° 284° (WNW) 03:35:46 435.215
SO-50 28 Nov 03:30:07 03:34:38 78° 304° (NW) 03:39:19 436.795
Gurwin Techsat 1B 28 Nov 03:56:48 04:01:27 32° 293° (WNW) 04:06:05 435.225
AIST 2 28 Nov 03:59:56 04:03:20 22° 45° (NE) 04:06:41 435.215
AO-7 28 Nov 04:13:30 04:21:43 56° 103° (ESE) 04:29:52 29.400- 29.500
HORYU 2 28 Nov 04:17:07 04:21:11 35° 290° (WNW) 04:25:16 437.375
ISS 28 Nov 04:21:37 04:24:44 37° 28° (NNE) 04:27:50 145.825
MOZHAYETS 4 28 Nov 04:27:21 04:31:57 84° 257° (WSW) 04:36:37
JAS-2 28 Nov 04:34:42 04:40:34 29° 91° (E) 04:45:50 435.910
BEESAT 3 28 Nov 04:35:53 04:40:06 86° 238° (WSW) 04:44:15 437.485
O/OREOS (USA 219) 28 Nov 04:36:30 04:39:39 19° 101° (E) 04:42:47 437.305
CUBESAT XI-V 28 Nov 04:41:51 04:43:10 11° 60° (ENE) 04:44:29 437.345
PRISM 28 Nov 04:51:08 04:54:54 32° 69° (ENE) 04:58:42 437.425
PCSat 28 Nov 04:52:36 04:57:57 59° 245° (WSW) 05:03:15 145.827
BEESAT 2 28 Nov 04:53:16 04:57:27 62° 241° (WSW) 05:01:33 435.950
CUTE-I 28 Nov 05:11:20 05:13:24 12° 89° (E) 05:15:28 437.470
SO-50 28 Nov 05:13:43 05:16:00 13° 324° (NW) 05:18:20 436.795
AIST 1 28 Nov 05:18:49 05:20:26 12° 68° (ENE) 05:22:03
AIST 2 28 Nov 05:38:04 05:42:10 43° 243° (WSW) 05:46:11 435.215
ISS 28 Nov 05:58:26 06:01:16 27° 225° (SW) 06:04:06 145.825
STRAND 1 28 Nov 06:03:08 06:08:16 72° 74° (ENE) 06:13:24 437.568
AO-7 28 Nov 06:06:49 06:14:06 35° 301° (WNW) 06:21:24 29.400- 29.500
Cubesat XI-IV 28 Nov 06:08:09 06:13:15 44° 99° (E) 06:18:17 437.490
O/OREOS (USA 219) 28 Nov 06:14:30 06:18:43 40° 297° (WNW) 06:22:58 437.305
CUBESAT XI-V 28 Nov 06:15:10 06:19:54 86° 257° (WSW) 06:24:39 437.345
JAS-2 28 Nov 06:19:13 06:25:54 48° 292° (WNW) 06:31:48 435.910
PRISM 28 Nov 06:27:17 06:30:30 21° 266° (W) 06:33:44 437.425
CUTE-I 28 Nov 06:48:45 06:54:05 80° 285° (WNW) 06:59:23 437.470
AIST 1 28 Nov 06:54:14 06:58:34 61° 265° (W) 07:02:49
GONETS M04 28 Nov 07:13:28 07:21:16 37° 85° (E) 07:29:07
STRAND 1 28 Nov 07:45:30 07:47:57 13° 270° (W) 07:50:24 437.568
Cubesat XI-IV 28 Nov 07:48:51 07:53:03 24° 296° (WNW) 07:57:15 437.490
HO-68 28 Nov 07:54:38 07:59:38 20° 91° (E) 08:04:35 435.675
SEEDS 28 Nov 08:09:30 08:11:34 13° 91° (E) 08:13:36 437.485
AAUSAT CUBESAT 2 28 Nov 08:21:24 08:23:26 13° 91° (E) 08:25:28 437.432
CUTE-I 28 Nov 08:31:47 08:33:16 11° 303° (WNW) 08:34:45 437.470
COMPASS 1 28 Nov 08:37:18 08:40:42 23° 94° (E) 08:44:04 437.405
GOMX 1 28 Nov 08:38:29 08:41:45 22° 95° (E) 08:45:06 467.674
CANX-2 28 Nov 08:39:28 08:43:27 36° 97° (E) 08:47:26 2200.000
DX 1 28 Nov 08:53:29 08:55:29 13° 91° (E) 08:57:27 434.975-435.025
QB50P1 28 Nov 08:59:17 09:00:55 12° 62° (ENE) 09:02:34 145.935-145.965
CUBEBUG 2 28 Nov 09:00:33 09:01:19 10° 90° (E) 09:02:06 437.445
GONETS M04 28 Nov 09:09:24 09:17:49 49° 285° (WNW) 09:26:21
CUTE 1.7 + AOD 2 28 Nov 09:13:34 09:17:53 82° 102° (ESE) 09:22:11 437.475
BRITE-PL 28 Nov 09:19:00 09:23:10 89° 101° (ESE) 09:27:25 437.365/2234.400
DOVE 4 28 Nov 09:22:18 09:26:24 50° 100° (E) 09:30:38 437.250
POPSAT HIP 1 28 Nov 09:22:38 09:25:51 21° 67° (ENE) 09:29:04 437.405
ZACube-1 28 Nov 09:23:41 09:26:04 15° 92° (E) 09:28:27 437.345
TIGRISAT 28 Nov 09:24:03 09:27:46 31° 69° (ENE) 09:31:31 435.000
VELOX 1 28 Nov 09:34:45 09:36:09 11° 90° (E) 09:37:32 145.980
UNISAT 6 28 Nov 09:38:44 09:42:48 45° 72° (ENE) 09:46:53 437.425
CINEMA 3 28 Nov 09:39:49 09:43:56 47° 100° (E) 09:48:11 145.822/145.860
HO-68 28 Nov 09:40:49 09:47:59 75° 289° (WNW) 09:55:06 435.675
SEEDS 28 Nov 09:43:32 09:47:42 53° 286° (WNW) 09:51:52 437.485
DELFI C3 28 Nov 09:47:48 09:51:52 52° 100° (E) 09:55:54 145.870
UKube-1 28 Nov 09:49:38 09:53:53 53° 101° (E) 09:58:07 .
AAUSAT CUBESAT 2 28 Nov 09:55:17 09:59:25 52° 287° (WNW) 10:03:32 437.432
50 SAT 28 Nov 09:55:41 09:58:08 15° 92° (E) 10:00:35 437.505
POLYITAN 1 28 Nov 09:56:42 10:00:49 50° 73° (ENE) 10:04:56 437.675
FUNcube-1 28 Nov 09:56:48 10:00:40 33° 97° (E) 10:04:36 145.935
QB50P2 28 Nov 09:57:40 10:01:48 51° 73° (ENE) 10:05:56 145.880/145.840
Oscar 11 28 Nov 09:58:56 10:03:19 84° 103° (ESE) 10:07:40 145.826/435.025
AISAT 28 Nov 10:00:46 10:04:18 23° 95° (E) 10:07:48 437.250
DUCHIFAT 1 28 Nov 10:01:59 10:06:08 57° 74° (ENE) 10:10:18 145.980
ANTELSAT 28 Nov 10:07:35 10:11:51 84° 257° (WSW) 10:16:09 437.575/2403.000
COMPASS 1 28 Nov 10:12:43 10:16:26 30° 290° (WNW) 10:20:09 437.405
CANX-2 28 Nov 10:16:00 10:19:09 20° 293° (WNW) 10:22:18 2200.000
GOMX 1 28 Nov 10:16:17 10:19:56 30° 290° (WNW) 10:23:39 467.674
NANOSAT C BR1 28 Nov 10:21:44 10:26:00 85° 257° (WSW) 10:30:16 145.865
SO-50 28 Nov 10:22:15 10:25:17 16° 39° (NE) 10:28:21 436.795
HUMSAT D 28 Nov 10:22:47 10:26:43 39° 98° (E) 10:30:41 437.325/437.525
DX 1 28 Nov 10:27:48 10:32:04 56° 287° (WNW) 10:36:17 434.975-435.025
UWE-3 28 Nov 10:29:03 10:33:19 88° 283° (WNW) 10:37:42 435.000/436.395/437.385
BUGSAT 1 28 Nov 10:29:14 10:33:29 84° 257° (WSW) 10:37:44 437.445
QB50P1 28 Nov 10:32:04 10:36:17 64° 259° (WSW) 10:40:31 145.935-145.965
CUBEBUG 2 28 Nov 10:34:11 10:38:25 67° 285° (WNW) 10:42:46 437.445
POPSAT HIP 1 28 Nov 10:57:43 11:01:34 33° 263° (W) 11:05:25 437.405
ZACube-1 28 Nov 10:58:35 11:02:41 48° 287° (WNW) 11:06:51 437.345
TIGRISAT 28 Nov 11:01:15 11:04:34 22° 266° (W) 11:07:54 435.000
DOVE 4 28 Nov 11:01:33 11:03:49 14° 295° (WNW) 11:06:07 437.250
VELOX 1 28 Nov 11:08:47 11:13:10 65° 286° (WNW) 11:17:32 145.980
ESTCUBE 1 28 Nov 11:16:29 11:20:59 58° 101° (E) 11:25:25 437.505/2401.250
UNISAT 6 28 Nov 11:17:23 11:19:51 15° 268° (W) 11:22:20 437.425
CINEMA 3 28 Nov 11:18:18 11:20:49 16° 295° (WNW) 11:23:23 145.822/145.860
SPROUT 28 Nov 11:19:11 11:21:05 13° 91° (E) 11:23:00 437.525
DELFI C3 28 Nov 11:24:38 11:26:43 14° 296° (WNW) 11:28:48 145.870
UKube-1 28 Nov 11:27:11 11:29:37 15° 297° (WNW) 11:32:02 .
50 SAT 28 Nov 11:29:48 11:33:38 41° 288° (WNW) 11:37:28 437.505
HO-68 28 Nov 11:30:42 11:34:30 15° 308° (NW) 11:38:18 435.675
FUNcube-1 28 Nov 11:33:37 11:36:51 22° 292° (WNW) 11:40:08 145.935
YUBILEINY 28 Nov 11:34:00 11:38:53 16° 59° (ENE) 11:43:44 435.215
POLYITAN 1 28 Nov 11:34:53 11:37:03 14° 269° (W) 11:39:14 437.675
QB50P2 28 Nov 11:35:56 11:38:01 13° 269° (W) 11:40:07 145.880/145.840
AISAT 28 Nov 11:37:02 11:40:58 32° 291° (WNW) 11:44:53 437.250
CUBEBUG 1 28 Nov 11:39:50 11:44:13 81° 284° (WNW) 11:48:32 437.445
DUCHIFAT 1 28 Nov 11:40:39 11:42:21 12° 269° (W) 11:44:04 145.980
Oscar 19 28 Nov 11:52:23 11:56:25 24° 65° (ENE) 12:00:28 437.125/150
HUMSAT D 28 Nov 11:59:25 12:02:16 18° 294° (WNW) 12:05:08 437.325/437.525
SO-50 28 Nov 12:01:36 12:06:30 89° 238° (WSW) 12:11:25 436.795
DANDE 28 Nov 12:17:37 12:19:41 20° 94° (E) 12:21:40 436.750
AUBIESAT-1 28 Nov 12:22:44 12:23:55 11° 93° (E) 12:25:04 437.475
M-CUBED/EXP-1 PRIME 28 Nov 12:28:34 12:31:12 14° 94° (E) 12:33:47 437.505
TISAT 1 28 Nov 12:35:10 12:39:23 77° 284° (WNW) 12:43:34 437.305
ITAMSAT 1 28 Nov 12:50:38 12:55:15 33° 67° (ENE) 12:59:53 435.822/435.867
SPROUT 28 Nov 12:53:20 12:57:31 54° 287° (WNW) 13:01:41 437.525
ESTCUBE 1 28 Nov 12:54:50 12:57:22 15° 297° (WNW) 12:59:52 437.505/2401.250
ITUPSAT 1 28 Nov 12:58:49 13:02:50 26° 95° (E) 13:06:50 437.325
VERMONT LUNAR 28 Nov 12:59:11 13:02:02 22° 152° (SSE) 13:04:53 437.305
PHONESAT 2.4 28 Nov 12:59:28 13:01:56 17° 149° (SSE) 13:04:23 2401.200-2431.200
SWISSCUBE 28 Nov 13:08:24 13:12:50 36° 98° (E) 13:17:12 437.505
CUSAT 1 28 Nov 13:23:03 13:25:06 20° 286° (WNW) 13:27:09 437.405
AO-7 28 Nov 13:24:02 13:29:01 18° 48° (NE) 13:33:59 29.400- 29.500
YUBILEINY 28 Nov 13:28:32 13:37:17 78° 81° (E) 13:45:57 435.215
Oscar 19 28 Nov 13:30:42 13:35:30 42° 262° (W) 13:40:21 437.125/150
Gurwin Techsat 1B 28 Nov 13:37:46 13:42:53 52° 71° (ENE) 13:48:03 435.225
BEESAT 28 Nov 13:38:39 13:43:26 68° 102° (ESE) 13:48:11 436.000
HORYU 2 28 Nov 13:40:01 13:43:22 21° 66° (ENE) 13:46:43 437.375
SO-50 28 Nov 13:45:22 13:46:19 11° 254° (WSW) 13:47:16 436.795
AUBIESAT-1 28 Nov 13:54:32 13:59:29 85° 289° (WNW) 14:04:14 437.475
M-CUBED/EXP-1 PRIME 28 Nov 14:01:44 14:06:40 68° 291° (WNW) 14:11:25 437.505
STARS 28 Nov 14:12:56 14:16:19 21° 94° (E) 14:19:40 437.465
MaSat-1 28 Nov 14:15:21 14:18:09 41° 113° (ESE) 14:20:43 437.345
ITAMSAT 1 28 Nov 14:30:09 14:34:42 30° 264° (W) 14:39:18 435.822/435.867
ITUPSAT 1 28 Nov 14:36:27 14:40:45 33° 292° (WNW) 14:45:01 437.325
VERMONT LUNAR 28 Nov 14:36:34 14:40:08 63° 168° (SSE) 14:43:44 437.305
PHONESAT 2.4 28 Nov 14:36:38 14:40:15 53° 164° (SSE) 14:43:53 2401.200-2431.200
O/OREOS (USA 219) 28 Nov 14:45:04 14:49:14 37° 62° (ENE) 14:53:23 437.305
SWISSCUBE 28 Nov 14:46:38 14:50:30 25° 294° (WNW) 14:54:21 437.505
JAS-2 28 Nov 14:47:08 14:51:58 18° 55° (NE) 14:56:47 435.910
KKS-1 28 Nov 14:58:34 15:03:01 81° 285° (WNW) 15:07:27 437.445
RS-15 28 Nov 15:03:33 15:13:51 49° 111° (ESE) 15:24:05 29.354- 29.394
AO-7 28 Nov 15:12:10 15:20:24 74° 69° (ENE) 15:28:43 29.400- 29.500
HORYU 2 28 Nov 15:15:44 15:19:48 36° 262° (W) 15:23:55 437.375
BEESAT 28 Nov 15:18:13 15:20:42 14° 299° (WNW) 15:23:10 436.000
Gurwin Techsat 1B 28 Nov 15:19:20 15:23:08 20° 268° (W) 15:26:58 435.225
YUBILEINY 28 Nov 15:27:00 15:33:02 22° 281° (W) 15:39:05 435.215
AUBIESAT-1 28 Nov 15:31:47 15:33:40 12° 306° (NW) 15:35:31 437.475
STARS 28 Nov 15:48:53 15:52:52 34° 290° (WNW) 15:56:50 437.465
Cubesat XI-IV 28 Nov 15:55:37 15:56:20 10° 56° (NE) 15:57:03 437.490
VERMONT LUNAR 28 Nov 16:14:56 16:18:34 79° 185° (S) 16:22:11 437.305
PHONESAT 2.4 28 Nov 16:15:14 16:18:58 82° 181° (S) 16:22:41 2401.200-2431.200
MOZHAYETS 4 28 Nov 16:23:22 16:27:06 24° 94° (E) 16:30:49
O/OREOS (USA 219) 28 Nov 16:25:02 16:28:22 21° 258° (WSW) 16:31:42 437.305
JAS-2 28 Nov 16:28:04 16:35:46 79° 74° (ENE) 16:43:38 435.910
CUTE-I 28 Nov 16:32:21 16:36:25 23° 63° (ENE) 16:40:29 437.470
AO-7 28 Nov 17:07:35 17:13:53 24° 267° (W) 17:20:15 29.400- 29.500
RS-15 28 Nov 17:15:32 17:26:06 52° 314° (NW) 17:36:47 29.354- 29.394
GONETS M04 28 Nov 17:24:09 17:29:51 18° 61° (ENE) 17:35:29
Cubesat XI-IV 28 Nov 17:30:08 17:35:28 74° 74° (ENE) 17:40:50 437.490
PCSat 28 Nov 17:53:01 17:56:31 18° 105° (ESE) 18:00:01 145.827
VERMONT LUNAR 28 Nov 17:53:29 17:56:51 37° 201° (SSW) 18:00:13 437.305
PHONESAT 2.4 28 Nov 17:54:03 17:57:38 47° 198° (SSW) 18:01:13 2401.200-2431.200
MOZHAYETS 4 28 Nov 18:00:10 18:04:23 35° 290° (WNW) 18:08:35
PRISM 28 Nov 18:09:28 18:13:39 54° 101° (E) 18:17:46 437.425
CUTE-I 28 Nov 18:10:57 18:16:08 49° 260° (W) 18:21:20 437.470
CUBESAT XI-V 28 Nov 18:12:52 18:16:38 24° 94° (E) 18:20:22 437.345
STRAND 1 28 Nov 18:14:29 18:18:34 24° 94° (E) 18:22:37 437.568
JAS-2 28 Nov 18:15:47 18:21:26 22° 271° (W) 18:27:14 435.910
HO-68 28 Nov 18:24:53 18:29:09 17° 53° (NE) 18:33:25 435.675
BEESAT 3 28 Nov 18:32:06 18:34:56 18° 111° (ESE) 18:37:48 437.485
BEESAT 2 28 Nov 18:49:21 18:52:44 25° 113° (ESE) 18:56:10 435.950
BRITE-PL 28 Nov 18:55:08 18:56:33 11° 63° (ENE) 18:57:58 437.365/2234.400
SEEDS 28 Nov 19:04:29 19:04:44 10° 61° (ENE) 19:05:00 437.485
Cubesat XI-IV 28 Nov 19:13:23 19:16:05 14° 270° (W) 19:18:48 437.490
GONETS M04 28 Nov 19:19:11 19:28:05 86° 83° (E) 19:36:51
AIST 1 28 Nov 19:23:27 19:27:51 80° 96° (E) 19:32:17
COMPASS 1 28 Nov 19:30:03 19:32:44 17° 65° (ENE) 19:35:25 437.405
CANX-2 28 Nov 19:33:07 19:36:38 27° 69° (ENE) 19:40:12 2200.000
RS-15 28 Nov 19:33:51 19:41:54 22° 345° (NNW) 19:50:06 29.354- 29.394
PHONESAT 2.4 28 Nov 19:33:53 19:35:54 14° 213° (SSW) 19:37:54 2401.200-2431.200
PCSat 28 Nov 19:34:00 19:39:22 64° 302° (WNW) 19:44:46 145.827
AIST 2 28 Nov 19:36:23 19:40:19 39° 116° (ESE) 19:44:19 435.215
PRISM 28 Nov 19:46:32 19:48:44 14° 297° (WNW) 19:50:54 437.425
GOMX 1 28 Nov 19:46:54 19:50:46 26° 69° (ENE) 19:54:26 467.674
CUBESAT XI-V 28 Nov 19:49:56 19:54:07 34° 290° (WNW) 19:58:16 437.345
DX 1 28 Nov 19:49:57 19:51:55 13° 62° (ENE) 19:53:53 434.975-435.025
STRAND 1 28 Nov 19:53:07 19:57:53 40° 291° (WNW) 20:02:36 437.568
CUTE 1.7 + AOD 2 28 Nov 20:06:39 20:10:46 57° 74° (ENE) 20:14:56 437.475
HO-68 28 Nov 20:08:36 20:15:47 82° 72° (ENE) 20:23:01 435.675
BEESAT 3 28 Nov 20:08:55 20:12:50 42° 308° (NW) 20:16:49 437.485
ZACube-1 28 Nov 20:21:27 20:23:05 12° 63° (ENE) 20:24:43 437.345
BEESAT 2 28 Nov 20:27:10 20:30:53 32° 310° (NW) 20:34:40 435.950
DOVE 4 28 Nov 20:28:15 20:32:39 53° 74° (ENE) 20:36:51 437.250
BRITE-PL 28 Nov 20:29:37 20:34:34 80° 258° (WSW) 20:39:08 437.365/2234.400
VELOX 1 28 Nov 20:33:20 20:35:00 12° 61° (ENE) 20:36:40 145.980
SEEDS 28 Nov 20:35:45 20:39:56 76° 258° (WSW) 20:44:10 437.485
DELFI C3 28 Nov 20:36:52 20:40:32 33° 71° (ENE) 20:44:13 145.870
CINEMA 3 28 Nov 20:42:06 20:46:13 44° 73° (ENE) 20:50:13 145.822/145.860
UKube-1 28 Nov 20:44:48 20:48:57 46° 72° (ENE) 20:53:08 .
AAUSAT CUBESAT 2 28 Nov 20:46:27 20:50:36 77° 258° (WSW) 20:54:48 437.432
50 SAT 28 Nov 20:46:39 20:47:39 11° 63° (ENE) 20:48:39 437.505
FUNcube-1 28 Nov 20:53:30 20:57:00 26° 69° (ENE) 21:00:29 145.935
Oscar 11 28 Nov 20:53:41 20:57:56 64° 75° (ENE) 21:02:13 145.826/435.025
AISAT 28 Nov 20:59:25 21:02:54 23° 66° (ENE) 21:06:22 437.250
COMPASS 1 28 Nov 21:04:11 21:08:08 42° 262° (W) 21:12:07 437.405
ISS 28 Nov 21:05:50 21:06:28 10° 129° (SE) 21:07:07 145.825
CANX-2 28 Nov 21:09:01 21:12:31 25° 265° (W) 21:16:04 2200.000
AIST 2 28 Nov 21:15:38 21:19:05 23° 314° (NW) 21:22:35 435.215
HUMSAT D 28 Nov 21:15:39 21:19:10 28° 69° (ENE) 21:22:42 437.325/437.525
GONETS M04 28 Nov 21:18:02 21:23:39 19° 282° (WNW) 21:29:17
PCSat 28 Nov 21:21:34 21:23:53 13° 323° (NW) 21:26:12 145.827
DX 1 28 Nov 21:23:17 21:27:37 64° 258° (WSW) 21:31:59 434.975-435.025
GOMX 1 28 Nov 21:24:44 21:28:49 29° 263° (W) 21:32:42 467.674
UWE-3 28 Nov 21:26:35 21:30:47 75° 76° (ENE) 21:34:57 435.000/436.395/437.385
CUBEBUG 2 28 Nov 21:32:47 21:37:01 80° 258° (WSW) 21:41:12 437.445
CUTE 1.7 + AOD 2 28 Nov 21:45:31 21:47:04 12° 270° (W) 21:48:38 437.475
RS-15 28 Nov 21:51:00 21:59:40 25° 22° (NNE) 22:08:32 29.354- 29.394
ZACube-1 28 Nov 21:54:50 21:58:58 60° 259° (W) 22:03:06 437.345
HO-68 28 Nov 21:59:41 22:04:15 18° 270° (W) 22:08:51 435.675
ANTELSAT 28 Nov 22:00:24 22:03:46 21° 94° (E) 22:07:11 437.575/2403.000
VELOX 1 28 Nov 22:06:31 22:10:59 73° 258° (WSW) 22:15:28 145.980
DOVE 4 28 Nov 22:08:23 22:10:41 14° 268° (W) 22:12:56 437.250
NANOSAT C BR1 28 Nov 22:08:36 22:11:09 16° 92° (E) 22:13:42 145.865
DELFI C3 28 Nov 22:13:00 22:15:55 19° 267° (W) 22:18:51 145.870
BUGSAT 1 28 Nov 22:13:44 22:15:48 14° 92° (E) 22:17:52 437.445
SPROUT 28 Nov 22:14:54 22:16:11 11° 62° (ENE) 22:17:27 437.525
ESTCUBE 1 28 Nov 22:16:12 22:20:38 54° 73° (ENE) 22:25:05 437.505/2401.250
CUSAT 1 28 Nov 22:16:19 22:19:53 19° 73° (ENE) 22:24:07 437.405
50 SAT 28 Nov 22:18:25 22:22:25 64° 259° (W) 22:26:25 437.505
QB50P1 28 Nov 22:18:28 22:21:37 20° 94° (E) 22:24:45 145.935-145.965
CINEMA 3 28 Nov 22:21:03 22:23:38 15° 267° (W) 22:26:10 145.822/145.860
UKube-1 28 Nov 22:22:42 22:25:21 16° 267° (W) 22:28:01 .
FUNcube-1 28 Nov 22:29:52 22:33:19 25° 265° (W) 22:36:46 145.935
Oscar 11 28 Nov 22:33:21 22:34:31 11° 270° (W) 22:35:42 145.826/435.025
AISAT 28 Nov 22:35:14 22:39:20 35° 262° (W) 22:43:26 437.250
CUBEBUG 1 28 Nov 22:35:56 22:40:23 84° 77° (ENE) 22:44:51 437.445
ISS 28 Nov 22:39:20 22:42:38 86° 327° (NNW) 22:45:55 145.825
POPSAT HIP 1 28 Nov 22:43:05 22:47:02 37° 98° (E) 22:50:57 437.405
TIGRISAT 28 Nov 22:51:39 22:56:07 71° 102° (ESE) 23:00:40 435.000
HUMSAT D 28 Nov 22:51:42 22:54:59 23° 265° (W) 22:58:16 437.325/437.525
DANDE 28 Nov 22:55:09 22:59:34 33° 77° (ENE) 23:05:15 436.750
UNISAT 6 28 Nov 23:07:06 23:11:35 78° 284° (WNW) 23:16:09 437.425
AUBIESAT-1 28 Nov 23:11:26 23:13:47 15° 56° (NE) 23:16:13 437.475
M-CUBED/EXP-1 PRIME 28 Nov 23:18:14 23:21:09 18° 58° (ENE) 23:24:13 437.505
POLYITAN 1 28 Nov 23:18:25 23:22:39 83° 284° (WNW) 23:26:53 437.675
QB50P2 28 Nov 23:19:09 23:23:24 81° 284° (WNW) 23:27:38 145.880/145.840
DUCHIFAT 1 28 Nov 23:23:06 23:27:19 75° 285° (WNW) 23:31:31 145.980
TISAT 1 28 Nov 23:27:38 23:31:53 79° 76° (ENE) 23:36:09 437.305
ANTELSAT 28 Nov 23:36:32 23:40:41 38° 289° (WNW) 23:44:54 437.575/2403.000
NANOSAT C BR1 28 Nov 23:43:15 23:47:15 43° 288° (WNW) 23:51:15 145.865
SPROUT 28 Nov 23:47:22 23:51:40 72° 258° (WSW) 23:56:00 437.525
BUGSAT 1 28 Nov 23:47:40 23:51:34 45° 288° (WNW) 23:55:25 437.445
MaSat-1 28 Nov 23:52:57 23:55:17 76° 64° (ENE) 23:57:41 437.345
QB50P1 28 Nov 23:53:46 23:57:35 33° 290° (WNW) 00:01:22 145.935-145.965
ESTCUBE 1 28 Nov 23:55:17 23:57:49 15° 269° (W) 00:00:23 437.505/2401.250
CUSAT 1 28 Nov 23:58:03 00:03:02 60° 263° (W) 00:09:38 437.405
RS-15 29 Nov 00:03:47 00:14:54 63° 51° (NE) 00:26:28 29.354- 29.394
ITUPSAT 1 29 Nov 00:05:48 00:10:01 31° 68° (ENE) 00:14:15 437.325
SWISSCUBE 29 Nov 00:15:07 00:19:37 42° 70° (ENE) 00:24:09 437.505
ISS 29 Nov 00:17:10 00:19:39 19° 343° (NNW) 00:22:08 145.825
POPSAT HIP 1 29 Nov 00:19:43 00:22:40 19° 294° (WNW) 00:25:37 437.405
TIGRISAT 29 Nov 00:30:34 00:32:19 12° 298° (WNW) 00:34:04 435.000
YUBILEINY 29 Nov 00:36:55 00:42:05 17° 77° (ENE) 00:47:14 435.215
DANDE 29 Nov 00:38:37 00:42:59 31° 265° (W) 00:48:34 436.750
AUBIESAT-1 29 Nov 00:44:02 00:48:09 64° 254° (WSW) 00:52:40 437.475
BEESAT 29 Nov 00:45:09 00:49:56 78° 75° (ENE) 00:54:45 436.000
M-CUBED/EXP-1 PRIME 29 Nov 00:51:46 00:55:46 48° 257° (WSW) 01:00:08 437.505
ITAMSAT 1 29 Nov 01:06:01 01:07:16 11° 88° (E) 01:08:31 435.822/435.867
STARS 29 Nov 01:10:43 01:13:55 20° 66° (ENE) 01:17:07 437.465
Oscar 19 29 Nov 01:41:49 01:46:59 69° 102° (ESE) 01:52:08 437.125/150
ITUPSAT 1 29 Nov 01:43:44 01:47:52 28° 264° (W) 01:52:02 437.325
SWISSCUBE 29 Nov 01:54:03 01:57:38 21° 266° (W) 02:01:15 437.505
Gurwin Techsat 1B 29 Nov 01:54:48 01:58:42 21° 93° (E) 02:02:36 435.225
ISS 29 Nov 01:55:29 01:57:15 14° 3° (N) 01:59:01 145.825
KKS-1 29 Nov 01:56:44 02:01:11 89° 256° (WSW) 02:05:40 437.445
RS-15 29 Nov 02:16:42 02:26:48 40° 252° (WSW) 02:37:19 29.354- 29.394
SO-50 29 Nov 02:16:58 02:20:51 29° 113° (ESE) 02:24:50 436.795
BEESAT 29 Nov 02:27:10 02:28:19 11° 271° (W) 02:29:29 436.000
YUBILEINY 29 Nov 02:28:44 02:37:33 88° 96° (E) 02:46:22 435.215
PCSat 29 Nov 02:39:36 02:43:17 18° 43° (NE) 02:46:57 145.827
ITAMSAT 1 29 Nov 02:42:12 02:47:24 86° 285° (WNW) 02:52:34 435.822/435.867
STARS 29 Nov 02:46:03 02:50:09 38° 262° (W) 02:54:16 437.465
BEESAT 3 29 Nov 02:51:38 02:54:12 16° 42° (NE) 02:56:44 437.485
